This demonstration page uses our WeatherBlox Daily Observations layout. Learn more.

Left ArrowRight Arrow

Hourly Observations for June 18, 2017

Temp ( °F °C ) Dew Point ( °F °C ) Humidity (%) Winds ( mph kmh ) Pressure ( in mb ) Visibility ( mi km ) Precip ( " mm )
12:15 am 00:15 Partly Cloudy with Light Rain 63 17.2 57 13.7 80 80 WNW 3 6 29.85 1011 10 16.0934 0 0
12:35 am 00:35 Partly Cloudy 63 17 57 13.7 81 81 WNW 3 6 29.85 1011 10 16.0934 0 0
12:55 am 00:55 Partly Cloudy 62 16.9 57 13.9 83 83 W 6 9 29.88 1012 10 16.0934 0 0
1:15 am 01:15 Clear with Light Rain 62 16.8 57 14.1 84 84 W 6 9 29.88 1012 10 16.0934 0 0
1:35 am 01:35 Clear 62 16.5 56 13.5 83 83 W 5 7 29.88 1012 10 16.0934 0 0
1:55 am 01:55 Clear 62 16.7 55 13 79 79 WNW 5 7 29.88 1012 10 16.0934 0 0
2:15 am 02:15 Clear 62 16.6 55 12.8 78 78 W 6 9 29.91 1013 10 16.0934 0 0
2:35 am 02:35 Clear 61 16.3 55 12.5 78 78 WNW 6 9 29.91 1013 10 16.0934 0 0
2:55 am 02:55 Clear with Nearby Thunderstorms 60 15.3 55 12.8 85 85 NW 5 7 29.94 1014 10 16.0934 0 0
3:15 am 03:15 Clear 60 15.3 53 11.4 78 78 NW 6 9 29.94 1014 10 16.0934 0 0
3:35 am 03:35 Clear 59 15.1 51 10.6 75 75 WNW 5 7 29.94 1014 10 16.0934 0 0
3:55 am 03:55 Clear 59 15.2 49 9.6 69 69 WNW 5 7 29.97 1015 10 16.0934 0 0
4:15 am 04:15 Clear 58 14.6 49 9.4 71 71 WNW 5 7 29.97 1015 10 16.0934 0 0
4:35 am 04:35 Clear 57 13.7 49 9.7 77 77 W 5 7 29.97 1015 10 16.0934 0 0
4:55 am 04:55 Clear 56 13.4 47 8.5 72 72 WNW 5 7 29.97 1015 10 16.0934 0 0
5:15 am 05:15 Clear 56 13.2 47 8.4 73 73 WNW 6 9 29.97 1015 10 16.0934 0 0
5:35 am 05:35 Clear 55 13 47 8.2 73 73 WNW 7 11 29.97 1015 10 16.0934 0 0
5:55 am 05:55 Clear 55 12.9 47 8.1 73 73 WNW 6 9 30 1016 10 16.0934 0 0
6:15 am 06:15 Sunny 54 12.3 46 8 75 75 WNW 5 7 30.03 1017 10 16.0934 0 0
6:35 am 06:35 Sunny 55 12.7 46 8 73 73 W 7 11 30.03 1017 10 16.0934 0 0
6:55 am 06:55 Sunny 56 13.6 46 8 69 69 W 7 11 30 1016 10 16.0934 0 0
7:15 am 07:15 Sunny 57 14 47 8.4 69 69 WNW 7 11 30 1016 10 16.0934 0 0
7:35 am 07:35 Sunny 59 14.8 48 9 68 68 WNW 6 9 30 1016 10 16.0934 0 0
7:55 am 07:55 Sunny 60 15.7 48 9 65 65 WNW 7 11 30 1016 10 16.0934 0 0
8:15 am 08:15 Sunny 62 16.5 49 9.2 62 62 WNW 7 11 29.97 1015 10 16.0934 0 0
8:35 am 08:35 Sunny 63 17.4 49 9.4 60 60 WNW 8 13 29.97 1015 10 16.0934 0 0
8:55 am 08:55 Sunny 65 18.3 48 9 55 55 NW 8 13 29.97 1015 10 16.0934 0 0
9:15 am 09:15 Sunny 65 18.6 47 8.1 51 51 NNW 10 17 29.97 1015 10 16.0934 0 0
9:35 am 09:35 Sunny 67 19.4 48 8.9 51 51 N 7 11 29.97 1015 10 16.0934 0 0
9:55 am 09:55 Sunny 68 20.1 46 7.7 45 45 N 9 15 29.94 1014 10 16.0934 0 0
10:15 am 10:15 Sunny 70 20.9 45 7.1 41 41 N 9 15 29.94 1014 10 16.0934 0 0
10:35 am 10:35 Sunny 71 21.5 44 6.4 38 38 N 9 15 29.94 1014 10 16.0934 0 0
10:55 am 10:55 Sunny 72 22.3 44 6.5 36 36 NNW 9 15 29.94 1014 10 16.0934 0 0
11:15 am 11:15 Sunny 72 22.2 42 5.7 34 34 NNW 13 20 29.94 1014 10 16.0934 0 0
11:35 am 11:35 Sunny 73 22.5 43 5.9 34 34 WSW 3 6 29.91 1013 10 16.0934 0 0
11:55 am 11:55 Sunny 74 23.3 42 5.7 32 32 NW 7 11 29.88 1012 10 16.0934 0 0
12:15 pm 12:15 Sunny 74 23.1 42 5.8 33 33 NW 3 6 29.88 1012 10 16.0934 0 0
12:35 pm 12:35 Sunny 75 24 41 5.1 30 30 NW 9 15 29.88 1012 10 16.0934 0 0
12:55 pm 12:55 Sunny 75 24.1 40 4.5 28 28 WNW 15 24 29.88 1012 10 16.0934 0 0
1:15 pm 13:15 Sunny 77 24.8 42 5.3 29 29 W 16 26 29.88 1012 10 16.0934 0 0
1:35 pm 13:35 Sunny 77 24.8 41 4.8 28 28 W 12 19 29.88 1012 10 16.0934 0 0
1:55 pm 13:55 Sunny 77 25 40 4.6 27 27 WNW 13 20 29.85 1011 10 16.0934 0 0
2:15 pm 14:15 Sunny 78 25.6 40 4.3 25 25 NW 13 20 29.85 1011 10 16.0934 0 0
2:35 pm 14:35 Partly Cloudy 79 26.1 40 4.6 25 25 W 13 20 29.85 1011 10 16.0934 0 0
2:55 pm 14:55 Partly Cloudy 80 26.4 40 4.4 24 24 WNW 10 17 29.85 1011 10 16.0934 0 0
3:15 pm 15:15 Partly Cloudy 80 26.6 40 4.7 25 25 WNW 10 17 29.83 1010 10 16.0934 0 0
3:35 pm 15:35 Partly Cloudy 79 26 40 4.4 25 25 NW 12 19 29.83 1010 10 16.0934 0 0
3:55 pm 15:55 Partly Cloudy 81 27.1 41 4.9 24 24 WNW 10 17 29.8 1009 10 16.0934 0 0
4:15 pm 16:15 Partly Cloudy 82 27.5 42 5.5 25 25 NW 10 17 29.8 1009 10 16.0934 0 0
4:35 pm 16:35 Partly Cloudy 80 26.7 41 4.8 25 25 NW 10 17 29.8 1009 10 16.0934 0 0
4:55 pm 16:55 Mostly Cloudy 79 26.1 40 4.6 25 25 WNW 7 11 29.83 1010 10 16.0934 0 0
5:15 pm 17:15 Cloudy 79 26.1 41 5 26 26 W 5 7 29.83 1010 10 16.0934 0 0
5:35 pm 17:35 Cloudy 79 26 42 5.3 27 27 W 7 11 29.83 1010 10 16.0934 0 0
5:55 pm 17:55 Cloudy 78 25.8 41 5.1 26 26 WNW 5 7 29.83 1010 10 16.0934 0 0
6:15 pm 18:15 Mostly Cloudy 79 26.2 42 5.5 27 27 W 5 7 29.8 1009 10 16.0934 0 0
6:35 pm 18:35 Mostly Cloudy 79 26 42 5.5 27 27 Calm 29.83 1010 10 16.0934 0 0
6:55 pm 18:55 Cloudy 80 26.5 42 5.5 26 26 Calm 29.8 1009 10 16.0934 0 0
7:15 pm 19:15 Cloudy 79 26 41 5.2 26 26 Calm 29.83 1010 10 16.0934 0 0
7:35 pm 19:35 Cloudy 79 26 42 5.6 27 27 Calm 29.83 1010 10 16.0934 0 0
7:55 pm 19:55 Cloudy 78 25.6 45 7.1 31 31 E 5 7 29.83 1010 10 16.0934 0 0
8:15 pm 20:15 Partly Cloudy 76 24.2 51 10.8 43 43 ENE 6 9 29.83 1010 10 16.0934 0 0
8:35 pm 20:35 Sunny 74 23.5 46 8 37 37 E 5 7 29.83 1010 10 16.0934 0 0
8:55 pm 20:55 Sunny 73 22.5 50 10 45 45 E 5 7 29.83 1010 10 16.0934 0 0
9:15 pm 21:15 Clear 72 22.1 51 10.4 48 48 E 6 9 29.85 1011 10 16.0934 0 0
9:35 pm 21:35 Partly Cloudy 71 21.9 50 10.2 48 48 E 5 7 29.85 1011 10 16.0934 0 0
9:55 pm 21:55 Mostly Cloudy 70 21.3 51 10.8 51 51 ENE 7 11 29.85 1011 10 16.0934 0 0
10:15 pm 22:15 Cloudy 70 20.9 50 10.1 50 50 ENE 7 11 29.88 1012 10 16.0934 0 0

Powered by AerisWeather